Year,Month,Day,Hour,Minute,Value (Times are PST for temperature in C)
2016,06,26,00,00,13.80
2016,06,26,00,01,13.80
2016,06,26,00,02,13.80
2016,06,26,00,03,13.80
2016,06,26,00,04,13.70
2016,06,26,00,05,13.70
2016,06,26,00,06,13.70
2016,06,26,00,07,13.70
2016,06,26,00,08,13.70
2016,06,26,00,09,13.70
2016,06,26,00,10,13.60
2016,06,26,00,11,13.60
2016,06,26,00,12,13.60
2016,06,26,00,13,13.70
2016,06,26,00,14,13.70
2016,06,26,00,15,13.70
2016,06,26,00,16,13.70
2016,06,26,00,17,13.80
2016,06,26,00,18,13.80
2016,06,26,00,19,13.80
2016,06,26,00,20,13.70
2016,06,26,00,21,13.70
2016,06,26,00,22,13.70
2016,06,26,00,23,13.70
2016,06,26,00,24,13.60
2016,06,26,00,25,13.60
2016,06,26,00,26,13.60
2016,06,26,00,27,13.50
2016,06,26,00,28,13.50
2016,06,26,00,29,13.40
2016,06,26,00,30,13.40
2016,06,26,00,31,13.40
2016,06,26,00,32,13.40
2016,06,26,00,33,13.30
2016,06,26,00,34,13.30
2016,06,26,00,35,13.30
2016,06,26,00,36,13.30
2016,06,26,00,37,13.30
2016,06,26,00,38,13.30
2016,06,26,00,39,13.30
2016,06,26,00,40,13.30
2016,06,26,00,41,13.20
2016,06,26,00,42,13.20
2016,06,26,00,43,13.20
2016,06,26,00,44,13.20
2016,06,26,00,45,13.20
2016,06,26,00,46,13.10
2016,06,26,00,47,13.10
2016,06,26,00,48,13.10
2016,06,26,00,49,13.10
2016,06,26,00,50,13.10
2016,06,26,00,51,13.00
2016,06,26,00,52,13.00
2016,06,26,00,53,12.90
2016,06,26,00,54,12.90
2016,06,26,00,55,12.90
2016,06,26,00,56,12.90
2016,06,26,00,57,12.80
2016,06,26,00,58,12.80
2016,06,26,00,59,12.80
2016,06,26,01,00,12.80
2016,06,26,01,01,12.80
2016,06,26,01,02,12.80
2016,06,26,01,03,12.70
2016,06,26,01,04,12.70
2016,06,26,01,05,12.70
2016,06,26,01,06,12.70
2016,06,26,01,07,12.70
2016,06,26,01,08,12.60
2016,06,26,01,09,12.60
2016,06,26,01,10,12.60
2016,06,26,01,11,12.60
2016,06,26,01,12,12.60
2016,06,26,01,13,12.60
2016,06,26,01,14,12.50
2016,06,26,01,15,12.50
2016,06,26,01,16,12.50
2016,06,26,01,17,12.50
2016,06,26,01,18,12.50
2016,06,26,01,19,12.50
2016,06,26,01,20,12.60
2016,06,26,01,21,12.60
2016,06,26,01,22,12.60
2016,06,26,01,23,12.60
2016,06,26,01,24,12.60
2016,06,26,01,25,12.60
2016,06,26,01,26,12.60
2016,06,26,01,27,12.60
2016,06,26,01,28,12.60
2016,06,26,01,29,12.60
2016,06,26,01,30,12.60
2016,06,26,01,31,12.60
2016,06,26,01,32,12.60
2016,06,26,01,33,12.60
2016,06,26,01,34,12.60
2016,06,26,01,35,12.60
2016,06,26,01,36,12.60
2016,06,26,01,37,12.60
2016,06,26,01,38,12.60
2016,06,26,01,39,12.50
2016,06,26,01,40,12.50
2016,06,26,01,41,12.50
2016,06,26,01,42,12.50
2016,06,26,01,43,12.40
2016,06,26,01,44,12.40
2016,06,26,01,45,12.40
2016,06,26,01,46,12.40
2016,06,26,01,47,12.40
2016,06,26,01,48,12.40
2016,06,26,01,49,12.40
2016,06,26,01,50,12.30
2016,06,26,01,51,12.30
2016,06,26,01,52,12.30
2016,06,26,01,53,12.30
2016,06,26,01,54,12.20
2016,06,26,01,55,12.20
2016,06,26,01,56,12.20
2016,06,26,01,57,12.20
2016,06,26,01,58,12.20
2016,06,26,01,59,12.20
2016,06,26,02,00,12.20
2016,06,26,02,01,12.20
2016,06,26,02,02,12.20
2016,06,26,02,03,12.20
2016,06,26,02,04,12.20
2016,06,26,02,05,12.20
2016,06,26,02,06,12.20
2016,06,26,02,07,12.20
2016,06,26,02,08,12.20
2016,06,26,02,09,12.20
2016,06,26,02,10,12.20
2016,06,26,02,11,12.10
2016,06,26,02,12,12.20
2016,06,26,02,13,12.20
2016,06,26,02,14,12.20
2016,06,26,02,15,12.20
2016,06,26,02,16,12.20
2016,06,26,02,17,12.20
2016,06,26,02,18,12.10
2016,06,26,02,19,12.10
2016,06,26,02,20,12.10
2016,06,26,02,21,12.10
2016,06,26,02,22,12.00
2016,06,26,02,23,12.00
2016,06,26,02,24,12.00
2016,06,26,02,25,12.00
2016,06,26,02,26,11.90
2016,06,26,02,27,11.90
2016,06,26,02,28,11.90
2016,06,26,02,29,11.90
2016,06,26,02,30,11.80
2016,06,26,02,31,11.80
2016,06,26,02,32,11.80
2016,06,26,02,33,11.70
2016,06,26,02,34,11.70
2016,06,26,02,35,11.70
2016,06,26,02,36,11.70
2016,06,26,02,37,11.70
2016,06,26,02,38,11.70
2016,06,26,02,39,11.70
2016,06,26,02,40,11.60
2016,06,26,02,41,11.60
2016,06,26,02,42,11.60
2016,06,26,02,43,11.60
2016,06,26,02,44,11.60
2016,06,26,02,45,11.60
2016,06,26,02,46,11.60
2016,06,26,02,47,11.50
2016,06,26,02,48,11.50
2016,06,26,02,49,11.50
2016,06,26,02,50,11.50
2016,06,26,02,51,11.50
2016,06,26,02,52,11.50
2016,06,26,02,53,11.50
2016,06,26,02,54,11.50
2016,06,26,02,55,11.50
2016,06,26,02,56,11.50
2016,06,26,02,57,11.50
2016,06,26,02,58,11.50
2016,06,26,02,59,11.50
2016,06,26,03,00,11.50
2016,06,26,03,01,11.50
2016,06,26,03,02,11.40
2016,06,26,03,03,11.40
2016,06,26,03,04,11.40
2016,06,26,03,05,11.40
2016,06,26,03,06,11.40
2016,06,26,03,07,11.40
2016,06,26,03,08,11.40
2016,06,26,03,09,11.40
2016,06,26,03,10,11.40
2016,06,26,03,11,11.40
2016,06,26,03,12,11.40
2016,06,26,03,13,11.40
2016,06,26,03,14,11.40
2016,06,26,03,15,11.30
2016,06,26,03,16,11.30
2016,06,26,03,17,11.30
2016,06,26,03,18,11.30
2016,06,26,03,19,11.30
2016,06,26,03,20,11.20
2016,06,26,03,21,11.20
2016,06,26,03,22,11.20
2016,06,26,03,23,11.10
2016,06,26,03,24,11.10
2016,06,26,03,25,11.10
2016,06,26,03,26,11.10
2016,06,26,03,27,11.10
2016,06,26,03,28,11.10
2016,06,26,03,29,11.00
2016,06,26,03,30,11.00
2016,06,26,03,31,11.00
2016,06,26,03,32,11.00
2016,06,26,03,33,11.00
2016,06,26,03,34,11.00
2016,06,26,03,35,11.00
2016,06,26,03,36,11.00
2016,06,26,03,37,11.00
2016,06,26,03,38,11.00
2016,06,26,03,39,11.00
2016,06,26,03,40,11.10
2016,06,26,03,41,11.10
2016,06,26,03,42,11.10
2016,06,26,03,43,11.10
2016,06,26,03,44,11.10
2016,06,26,03,45,11.10
2016,06,26,03,46,11.10
2016,06,26,03,47,11.10
2016,06,26,03,48,11.00
2016,06,26,03,49,11.00
2016,06,26,03,50,10.90
2016,06,26,03,51,10.90
2016,06,26,03,52,10.90
2016,06,26,03,53,10.90
2016,06,26,03,54,10.80
2016,06,26,03,55,10.80
2016,06,26,03,56,10.90
2016,06,26,03,57,10.90
2016,06,26,03,58,10.90
2016,06,26,03,59,10.90
2016,06,26,04,00,10.80
2016,06,26,04,01,10.80
2016,06,26,04,02,10.80
2016,06,26,04,03,10.80
2016,06,26,04,04,10.80
2016,06,26,04,05,10.80
2016,06,26,04,06,10.80
2016,06,26,04,07,10.80
2016,06,26,04,08,10.80
2016,06,26,04,09,10.80
2016,06,26,04,10,10.80
2016,06,26,04,11,10.80
2016,06,26,04,12,10.80
2016,06,26,04,13,10.80
2016,06,26,04,14,10.80
2016,06,26,04,15,10.90
2016,06,26,04,16,10.90
2016,06,26,04,17,10.90
2016,06,26,04,18,10.90
2016,06,26,04,19,10.90
2016,06,26,04,20,10.90
2016,06,26,04,21,10.90
2016,06,26,04,22,11.00
2016,06,26,04,23,11.10
2016,06,26,04,24,11.10
2016,06,26,04,25,11.10
2016,06,26,04,26,11.20
2016,06,26,04,27,11.20
2016,06,26,04,28,11.20
2016,06,26,04,29,11.20
2016,06,26,04,30,11.20
2016,06,26,04,31,11.20
2016,06,26,04,32,11.20
2016,06,26,04,33,11.20
2016,06,26,04,34,11.20
2016,06,26,04,35,11.20
2016,06,26,04,36,11.20
2016,06,26,04,37,11.10
2016,06,26,04,38,11.10
2016,06,26,04,39,11.00
2016,06,26,04,40,10.90
2016,06,26,04,41,10.90
2016,06,26,04,42,10.80
2016,06,26,04,43,10.80
2016,06,26,04,44,10.70
2016,06,26,04,45,10.70
2016,06,26,04,46,10.60
2016,06,26,04,47,10.60
2016,06,26,04,48,10.50
2016,06,26,04,49,10.50
2016,06,26,04,50,10.50
2016,06,26,04,51,10.40
2016,06,26,04,52,10.40
2016,06,26,04,53,10.40
2016,06,26,04,54,10.40
2016,06,26,04,55,10.40
2016,06,26,04,56,10.40
2016,06,26,04,57,10.40
2016,06,26,04,58,10.40
2016,06,26,04,59,10.40
2016,06,26,05,00,10.40
2016,06,26,05,01,10.30
2016,06,26,05,02,10.30
2016,06,26,05,03,10.40
2016,06,26,05,04,10.40
2016,06,26,05,05,10.40
2016,06,26,05,06,10.40
2016,06,26,05,07,10.40
2016,06,26,05,08,10.40
2016,06,26,05,09,10.40
2016,06,26,05,10,10.30
2016,06,26,05,11,10.30
2016,06,26,05,12,10.30
2016,06,26,05,13,10.30
2016,06,26,05,14,10.30
2016,06,26,05,15,10.30
2016,06,26,05,16,10.20
2016,06,26,05,17,10.20
2016,06,26,05,18,10.20
2016,06,26,05,19,10.20
2016,06,26,05,20,10.20
2016,06,26,05,21,10.20
2016,06,26,05,22,10.30
2016,06,26,05,23,10.30
2016,06,26,05,24,10.30
2016,06,26,05,25,10.30
2016,06,26,05,26,10.30
2016,06,26,05,27,10.30
2016,06,26,05,28,10.30
2016,06,26,05,29,10.30
2016,06,26,05,30,10.30
2016,06,26,05,31,10.30
2016,06,26,05,32,10.30
2016,06,26,05,33,10.40
2016,06,26,05,34,10.40
2016,06,26,05,35,10.40
2016,06,26,05,36,10.40
2016,06,26,05,37,10.40
2016,06,26,05,38,10.40
2016,06,26,05,39,10.40
2016,06,26,05,40,10.40
2016,06,26,05,41,10.40
2016,06,26,05,42,10.40
2016,06,26,05,43,10.40
2016,06,26,05,44,10.40
2016,06,26,05,45,10.40
2016,06,26,05,46,10.40
2016,06,26,05,47,10.50
2016,06,26,05,48,10.50
2016,06,26,05,49,10.50
2016,06,26,05,50,10.60
2016,06,26,05,51,10.60
2016,06,26,05,52,10.60
2016,06,26,05,53,10.60
2016,06,26,05,54,10.70
2016,06,26,05,55,10.70
2016,06,26,05,56,10.70
2016,06,26,05,57,10.70
2016,06,26,05,58,10.80
2016,06,26,05,59,10.80
2016,06,26,06,00,10.80
2016,06,26,06,01,10.80
2016,06,26,06,02,10.80
2016,06,26,06,03,10.80
2016,06,26,06,04,10.80
2016,06,26,06,05,10.80
2016,06,26,06,06,10.90
2016,06,26,06,07,10.90
2016,06,26,06,08,10.90
2016,06,26,06,09,11.00
2016,06,26,06,10,11.00
2016,06,26,06,11,11.10
2016,06,26,06,12,11.10
2016,06,26,06,13,11.20
2016,06,26,06,14,11.20
2016,06,26,06,15,11.20
2016,06,26,06,16,11.20
2016,06,26,06,17,11.20
2016,06,26,06,18,11.20
2016,06,26,06,19,11.20
2016,06,26,06,20,11.20
2016,06,26,06,21,11.20
2016,06,26,06,22,11.20
2016,06,26,06,23,11.20
2016,06,26,06,24,11.20
2016,06,26,06,25,11.30
2016,06,26,06,26,11.30
2016,06,26,06,27,11.30
2016,06,26,06,28,11.40
2016,06,26,06,29,11.50
2016,06,26,06,30,11.50
2016,06,26,06,31,11.60
2016,06,26,06,32,11.70
2016,06,26,06,33,11.70
2016,06,26,06,34,11.80
2016,06,26,06,35,11.80
2016,06,26,06,36,11.90
2016,06,26,06,37,11.90
2016,06,26,06,38,12.00
2016,06,26,06,39,12.10
2016,06,26,06,40,12.10
2016,06,26,06,41,12.20
2016,06,26,06,42,12.30
2016,06,26,06,43,12.30
2016,06,26,06,44,12.40
2016,06,26,06,45,12.50
2016,06,26,06,46,12.50
2016,06,26,06,47,12.60
2016,06,26,06,48,12.70
2016,06,26,06,49,12.70
2016,06,26,06,50,12.80
2016,06,26,06,51,12.80
2016,06,26,06,52,12.90
2016,06,26,06,53,12.90
2016,06,26,06,54,13.00
2016,06,26,06,55,13.10
2016,06,26,06,56,13.10
2016,06,26,06,57,13.20
2016,06,26,06,58,13.30
2016,06,26,06,59,13.30
2016,06,26,07,00,13.40
2016,06,26,07,01,13.50
2016,06,26,07,02,13.60
2016,06,26,07,03,13.70
2016,06,26,07,04,13.80
2016,06,26,07,05,13.80
2016,06,26,07,06,13.90
2016,06,26,07,07,14.00
2016,06,26,07,08,14.10
2016,06,26,07,09,14.20
2016,06,26,07,10,14.20
2016,06,26,07,11,14.30
2016,06,26,07,12,14.30
2016,06,26,07,13,14.40
2016,06,26,07,14,14.40
2016,06,26,07,15,14.50
2016,06,26,07,16,14.50
2016,06,26,07,17,14.50
2016,06,26,07,18,14.60
2016,06,26,07,19,14.60
2016,06,26,07,20,14.70
2016,06,26,07,21,14.70
2016,06,26,07,22,14.80
2016,06,26,07,23,14.80
2016,06,26,07,24,14.80
2016,06,26,07,25,14.90
2016,06,26,07,26,15.00
2016,06,26,07,27,15.00
2016,06,26,07,28,15.10
2016,06,26,07,29,15.20
2016,06,26,07,30,15.20
2016,06,26,07,31,15.30
2016,06,26,07,32,15.40
2016,06,26,07,33,15.50
2016,06,26,07,34,15.60
2016,06,26,07,35,15.60
2016,06,26,07,36,15.70
2016,06,26,07,37,15.80
2016,06,26,07,38,16.00
2016,06,26,07,39,16.10
2016,06,26,07,40,16.20
2016,06,26,07,41,16.30
2016,06,26,07,42,16.40
2016,06,26,07,43,16.50
2016,06,26,07,44,16.60
2016,06,26,07,45,16.70
2016,06,26,07,46,16.80
2016,06,26,07,47,16.90
2016,06,26,07,48,17.00
2016,06,26,07,49,17.10
2016,06,26,07,50,17.10
2016,06,26,07,51,17.10
2016,06,26,07,52,17.20
2016,06,26,07,53,17.20
2016,06,26,07,54,17.20
2016,06,26,07,55,17.30
2016,06,26,07,56,17.30
2016,06,26,07,57,17.30
2016,06,26,07,58,17.30
2016,06,26,07,59,17.30
2016,06,26,08,00,17.30
2016,06,26,08,01,17.30
2016,06,26,08,02,17.30
2016,06,26,08,03,17.40
2016,06,26,08,04,17.40
2016,06,26,08,05,17.40
2016,06,26,08,06,17.40
2016,06,26,08,07,17.40
2016,06,26,08,08,17.40
2016,06,26,08,09,17.40
2016,06,26,08,10,17.50
2016,06,26,08,11,17.50
2016,06,26,08,12,17.50
2016,06,26,08,13,17.50
2016,06,26,08,14,17.50
2016,06,26,08,15,17.50
2016,06,26,08,16,17.60
2016,06,26,08,17,17.60
2016,06,26,08,18,17.60
2016,06,26,08,19,17.60
2016,06,26,08,20,17.70
2016,06,26,08,21,17.70
2016,06,26,08,22,17.70
2016,06,26,08,23,17.70
2016,06,26,08,24,17.70
2016,06,26,08,25,17.70
2016,06,26,08,26,17.70
2016,06,26,08,27,17.80
2016,06,26,08,28,17.80
2016,06,26,08,29,17.80
2016,06,26,08,30,17.80
2016,06,26,08,31,17.80
2016,06,26,08,32,17.90
2016,06,26,08,33,17.90
2016,06,26,08,34,17.90
2016,06,26,08,35,17.90
2016,06,26,08,36,18.00
2016,06,26,08,37,18.00
2016,06,26,08,38,18.00
2016,06,26,08,39,18.00
2016,06,26,08,40,18.10
2016,06,26,08,41,18.10
2016,06,26,08,42,18.10
2016,06,26,08,43,18.10
2016,06,26,08,44,18.20
2016,06,26,08,45,18.20
2016,06,26,08,46,18.20
2016,06,26,08,47,18.20
2016,06,26,08,48,18.20
2016,06,26,08,49,18.10
2016,06,26,08,50,18.10
2016,06,26,08,51,18.10
2016,06,26,08,52,18.20
2016,06,26,08,53,18.20
2016,06,26,08,54,18.30
2016,06,26,08,55,18.30
2016,06,26,08,56,18.30
2016,06,26,08,57,18.30
2016,06,26,08,58,18.30
2016,06,26,08,59,18.30
2016,06,26,09,00,18.20
2016,06,26,09,01,18.20
2016,06,26,09,02,18.20
2016,06,26,09,03,18.30
2016,06,26,09,04,18.30
2016,06,26,09,05,18.20
2016,06,26,09,06,18.20
2016,06,26,09,07,18.20
2016,06,26,09,08,18.20
2016,06,26,09,09,18.20
2016,06,26,09,10,18.20
2016,06,26,09,11,18.20
2016,06,26,09,12,18.20
2016,06,26,09,13,18.20
2016,06,26,09,14,18.20
2016,06,26,09,15,18.20
2016,06,26,09,16,18.20
2016,06,26,09,17,18.20
2016,06,26,09,18,18.20
2016,06,26,09,19,18.20
2016,06,26,09,20,18.20
2016,06,26,09,21,18.20
2016,06,26,09,22,18.20
2016,06,26,09,23,18.30
2016,06,26,09,24,18.30
2016,06,26,09,25,18.30
2016,06,26,09,26,18.30
2016,06,26,09,27,18.30
2016,06,26,09,28,18.30
2016,06,26,09,29,18.30
2016,06,26,09,30,18.20
2016,06,26,09,31,18.20
2016,06,26,09,32,18.30
2016,06,26,09,33,18.30
2016,06,26,09,34,18.30
2016,06,26,09,35,18.30
2016,06,26,09,36,18.40
2016,06,26,09,37,18.40
2016,06,26,09,38,18.50
2016,06,26,09,39,18.50
2016,06,26,09,40,18.50
2016,06,26,09,41,18.60
2016,06,26,09,42,18.60
2016,06,26,09,43,18.60
2016,06,26,09,44,18.70
2016,06,26,09,45,18.60
2016,06,26,09,46,18.60
2016,06,26,09,47,18.60
2016,06,26,09,48,18.60
2016,06,26,09,49,18.60
2016,06,26,09,50,18.60
2016,06,26,09,51,18.70
2016,06,26,09,52,18.70
2016,06,26,09,53,18.70
2016,06,26,09,54,18.60
2016,06,26,09,55,18.60
2016,06,26,09,56,18.60
2016,06,26,09,57,18.50
2016,06,26,09,58,18.50
2016,06,26,09,59,18.60
2016,06,26,10,00,18.60
2016,06,26,10,01,18.60
2016,06,26,10,02,18.60
2016,06,26,10,03,18.70
2016,06,26,10,04,18.70
2016,06,26,10,05,18.70
2016,06,26,10,06,18.80
2016,06,26,10,07,18.90
2016,06,26,10,08,18.90
2016,06,26,10,09,18.80
2016,06,26,10,10,18.80
2016,06,26,10,11,18.70
2016,06,26,10,12,18.70
2016,06,26,10,13,18.70
2016,06,26,10,14,18.70
2016,06,26,10,15,18.80
2016,06,26,10,16,18.80
2016,06,26,10,17,18.80
2016,06,26,10,18,18.80
2016,06,26,10,19,18.90
2016,06,26,10,20,18.80
2016,06,26,10,21,18.80
2016,06,26,10,22,18.80
2016,06,26,10,23,18.80
2016,06,26,10,24,18.80
2016,06,26,10,25,18.80
2016,06,26,10,26,18.90
2016,06,26,10,27,18.90
2016,06,26,10,28,18.90
2016,06,26,10,29,19.00
2016,06,26,10,30,19.00
2016,06,26,10,31,19.10
2016,06,26,10,32,19.20
2016,06,26,10,33,19.20
2016,06,26,10,34,19.20
2016,06,26,10,35,19.20
2016,06,26,10,36,19.20
2016,06,26,10,37,19.20
2016,06,26,10,38,19.30
2016,06,26,10,39,19.30
2016,06,26,10,40,19.20
2016,06,26,10,41,19.20
2016,06,26,10,42,19.20
2016,06,26,10,43,19.30
2016,06,26,10,44,19.30
2016,06,26,10,45,19.30
2016,06,26,10,46,19.30
2016,06,26,10,47,19.30
2016,06,26,10,48,19.30
2016,06,26,10,49,19.30
2016,06,26,10,50,19.30
2016,06,26,10,51,19.40
2016,06,26,10,52,19.40
2016,06,26,10,53,19.40
2016,06,26,10,54,19.40
2016,06,26,10,55,19.40
2016,06,26,10,56,19.40
2016,06,26,10,57,19.40
2016,06,26,10,58,19.50
2016,06,26,10,59,19.50
2016,06,26,11,00,19.60
2016,06,26,11,01,19.70
2016,06,26,11,02,19.70
2016,06,26,11,03,19.80
2016,06,26,11,04,19.80
2016,06,26,11,05,19.80
2016,06,26,11,06,19.80
2016,06,26,11,07,19.80
2016,06,26,11,08,19.80
2016,06,26,11,09,19.70
2016,06,26,11,10,19.70
2016,06,26,11,11,19.70
2016,06,26,11,12,19.70
2016,06,26,11,13,19.60
2016,06,26,11,14,19.60
2016,06,26,11,15,19.60
2016,06,26,11,16,19.70
2016,06,26,11,17,19.70
2016,06,26,11,18,19.70
2016,06,26,11,19,19.80
2016,06,26,11,20,19.90
2016,06,26,11,21,19.90
2016,06,26,11,22,20.00
2016,06,26,11,23,20.00
2016,06,26,11,24,20.10
2016,06,26,11,25,20.10
2016,06,26,11,26,20.20
2016,06,26,11,27,20.20
2016,06,26,11,28,20.30
2016,06,26,11,29,20.40
2016,06,26,11,30,20.40
2016,06,26,11,31,20.40
2016,06,26,11,32,20.30
2016,06,26,11,33,20.20
2016,06,26,11,34,20.20
2016,06,26,11,35,20.20
2016,06,26,11,36,20.20
2016,06,26,11,37,20.20
2016,06,26,11,38,20.10
2016,06,26,11,39,20.10
2016,06,26,11,40,20.10
2016,06,26,11,41,20.10
2016,06,26,11,42,20.10
2016,06,26,11,43,20.30
2016,06,26,11,44,20.40
2016,06,26,11,45,20.40
2016,06,26,11,46,20.30
2016,06,26,11,47,20.30
2016,06,26,11,48,20.40
2016,06,26,11,49,20.40
2016,06,26,11,50,20.50
2016,06,26,11,51,20.60
2016,06,26,11,52,20.60
2016,06,26,11,53,20.70
2016,06,26,11,54,20.70
2016,06,26,11,55,20.70
2016,06,26,11,56,20.70
2016,06,26,11,57,20.70
2016,06,26,11,58,20.70
2016,06,26,11,59,20.70
2016,06,26,12,00,20.70
2016,06,26,12,01,20.80
2016,06,26,12,02,20.80
2016,06,26,12,03,20.80
2016,06,26,12,04,20.80
2016,06,26,12,05,20.70
2016,06,26,12,06,20.70
2016,06,26,12,07,20.70
2016,06,26,12,08,20.70
2016,06,26,12,09,20.80
2016,06,26,12,10,20.80
2016,06,26,12,11,20.90
2016,06,26,12,12,20.90
2016,06,26,12,13,21.00
2016,06,26,12,14,21.00
2016,06,26,12,15,21.10
2016,06,26,12,16,21.10
2016,06,26,12,17,21.20
2016,06,26,12,18,21.20
2016,06,26,12,19,21.20
2016,06,26,12,20,21.30
2016,06,26,12,21,21.40
2016,06,26,12,22,21.50
2016,06,26,12,23,21.60
2016,06,26,12,24,21.70
2016,06,26,12,25,21.70
2016,06,26,12,26,21.80
2016,06,26,12,27,21.90
2016,06,26,12,28,22.00
2016,06,26,12,29,22.00
2016,06,26,12,30,22.00
2016,06,26,12,31,21.90
2016,06,26,12,32,21.80
2016,06,26,12,33,21.80
2016,06,26,12,34,21.80
2016,06,26,12,35,21.80
2016,06,26,12,36,21.80
2016,06,26,12,37,21.70
2016,06,26,12,38,21.70
2016,06,26,12,39,21.70
2016,06,26,12,40,21.80
2016,06,26,12,41,21.80
2016,06,26,12,42,21.80
2016,06,26,12,43,21.80
2016,06,26,12,44,21.90
2016,06,26,12,45,21.90
2016,06,26,12,46,22.00
2016,06,26,12,47,22.10
2016,06,26,12,48,22.10
2016,06,26,12,49,22.10
2016,06,26,12,50,22.10
2016,06,26,12,51,22.10
2016,06,26,12,52,22.20
2016,06,26,12,53,22.30
2016,06,26,12,54,22.40
2016,06,26,12,55,22.50
2016,06,26,12,56,22.50
2016,06,26,12,57,22.40
2016,06,26,12,58,22.30
2016,06,26,12,59,22.30
2016,06,26,13,00,22.20
2016,06,26,13,01,22.10
2016,06,26,13,02,22.10
2016,06,26,13,03,22.00
2016,06,26,13,04,22.10
2016,06,26,13,05,22.10
2016,06,26,13,06,22.10
2016,06,26,13,07,22.10
2016,06,26,13,08,22.10
2016,06,26,13,09,22.20
2016,06,26,13,10,22.20
2016,06,26,13,11,22.20
2016,06,26,13,12,22.30
2016,06,26,13,13,22.30
2016,06,26,13,14,22.30
2016,06,26,13,15,22.30
2016,06,26,13,16,22.30
2016,06,26,13,17,22.30
2016,06,26,13,18,22.20
2016,06,26,13,19,22.20
2016,06,26,13,20,22.30
2016,06,26,13,21,22.40
2016,06,26,13,22,22.50
2016,06,26,13,23,22.60
2016,06,26,13,24,22.70
2016,06,26,13,25,22.70
2016,06,26,13,26,22.80
2016,06,26,13,27,22.80
2016,06,26,13,28,22.80
2016,06,26,13,29,22.80
2016,06,26,13,30,22.80
2016,06,26,13,31,22.80
2016,06,26,13,32,22.80
2016,06,26,13,33,22.90
2016,06,26,13,34,22.90
2016,06,26,13,35,22.80
2016,06,26,13,36,22.80
2016,06,26,13,37,22.80
2016,06,26,13,38,22.80
2016,06,26,13,39,22.80
2016,06,26,13,40,22.90
2016,06,26,13,41,22.90
2016,06,26,13,42,22.90
2016,06,26,13,43,22.90
2016,06,26,13,44,22.80
2016,06,26,13,45,22.80
2016,06,26,13,46,22.80
2016,06,26,13,47,22.80
2016,06,26,13,48,22.80
2016,06,26,13,49,22.80
2016,06,26,13,50,22.80
2016,06,26,13,51,22.70
2016,06,26,13,52,22.70
2016,06,26,13,53,22.60
2016,06,26,13,54,22.60
2016,06,26,13,55,22.60
2016,06,26,13,56,22.60
2016,06,26,13,57,22.70
2016,06,26,13,58,22.70
2016,06,26,13,59,22.80
2016,06,26,14,00,22.90
2016,06,26,14,01,22.90
2016,06,26,14,02,22.90
2016,06,26,14,03,22.90
2016,06,26,14,04,22.80
2016,06,26,14,05,22.70
2016,06,26,14,06,22.70
2016,06,26,14,07,22.70
2016,06,26,14,08,22.80
2016,06,26,14,09,22.80
2016,06,26,14,10,22.90
2016,06,26,14,11,22.90
2016,06,26,14,12,22.90
2016,06,26,14,13,22.90
2016,06,26,14,14,23.00
2016,06,26,14,15,23.10
2016,06,26,14,16,23.10
2016,06,26,14,17,23.10
2016,06,26,14,18,23.00
2016,06,26,14,19,23.00
2016,06,26,14,20,23.00
2016,06,26,14,21,23.00
2016,06,26,14,22,23.10
2016,06,26,14,23,23.10
2016,06,26,14,24,23.10
2016,06,26,14,25,23.10
2016,06,26,14,26,23.20
2016,06,26,14,27,23.20
2016,06,26,14,28,23.30
2016,06,26,14,29,23.40
2016,06,26,14,30,23.50
2016,06,26,14,31,23.60
2016,06,26,14,32,23.60
2016,06,26,14,33,23.70
2016,06,26,14,34,23.70
2016,06,26,14,35,23.60
2016,06,26,14,36,23.60
2016,06,26,14,37,23.50
2016,06,26,14,38,23.40
2016,06,26,14,39,23.40
2016,06,26,14,40,23.40
2016,06,26,14,41,23.30
2016,06,26,14,42,23.30
2016,06,26,14,43,23.30
2016,06,26,14,44,23.40
2016,06,26,14,45,23.40
2016,06,26,14,46,23.40
2016,06,26,14,47,23.40
2016,06,26,14,48,23.40
2016,06,26,14,49,23.30
2016,06,26,14,50,23.40
2016,06,26,14,51,23.40
2016,06,26,14,52,23.40
2016,06,26,14,53,23.50
2016,06,26,14,54,23.50
2016,06,26,14,55,23.60
2016,06,26,14,56,23.70
2016,06,26,14,57,23.60
2016,06,26,14,58,23.60
2016,06,26,14,59,23.60
2016,06,26,15,00,23.60
2016,06,26,15,01,23.70
2016,06,26,15,02,23.60
2016,06,26,15,03,23.60
2016,06,26,15,04,23.50
2016,06,26,15,05,23.40
2016,06,26,15,06,23.40
2016,06,26,15,07,23.40
2016,06,26,15,08,23.40
2016,06,26,15,09,23.40
2016,06,26,15,10,23.50
2016,06,26,15,11,23.50
2016,06,26,15,12,23.60
2016,06,26,15,13,23.60
2016,06,26,15,14,23.60
2016,06,26,15,15,23.60
2016,06,26,15,16,23.60
2016,06,26,15,17,23.50
2016,06,26,15,18,23.50
2016,06,26,15,19,23.60
2016,06,26,15,20,23.60
2016,06,26,15,21,23.70
2016,06,26,15,22,23.70
2016,06,26,15,23,23.70
2016,06,26,15,24,23.70
2016,06,26,15,25,23.70
2016,06,26,15,26,23.70
2016,06,26,15,27,23.80
2016,06,26,15,28,23.80
2016,06,26,15,29,23.80
2016,06,26,15,30,23.90
2016,06,26,15,31,23.90
2016,06,26,15,32,23.90
2016,06,26,15,33,23.90
2016,06,26,15,34,23.90
2016,06,26,15,35,23.90
2016,06,26,15,36,23.90
2016,06,26,15,37,23.90
2016,06,26,15,38,23.80
2016,06,26,15,39,23.80
2016,06,26,15,40,23.70
2016,06,26,15,41,23.70
2016,06,26,15,42,23.70
2016,06,26,15,43,23.70
2016,06,26,15,44,23.80
2016,06,26,15,45,23.80
2016,06,26,15,46,23.80
2016,06,26,15,47,23.90
2016,06,26,15,48,24.10
2016,06,26,15,49,24.20
2016,06,26,15,50,24.40
2016,06,26,15,51,24.40
2016,06,26,15,52,24.40
2016,06,26,15,53,24.40
2016,06,26,15,54,24.30
2016,06,26,15,55,24.30
2016,06,26,15,56,24.20
2016,06,26,15,57,24.10
2016,06,26,15,58,24.00
2016,06,26,15,59,24.00
2016,06,26,16,00,23.90
2016,06,26,16,01,23.90
2016,06,26,16,02,23.90
2016,06,26,16,03,23.90
2016,06,26,16,04,23.80
2016,06,26,16,05,23.80
2016,06,26,16,06,23.80
2016,06,26,16,07,23.70
2016,06,26,16,08,23.70
2016,06,26,16,09,23.70
2016,06,26,16,10,23.60
2016,06,26,16,11,23.70
2016,06,26,16,12,23.70
2016,06,26,16,13,23.70
2016,06,26,16,14,23.60
2016,06,26,16,15,23.60
2016,06,26,16,16,23.60
2016,06,26,16,17,23.60
2016,06,26,16,18,23.70
2016,06,26,16,19,23.70
2016,06,26,16,20,23.70
2016,06,26,16,21,23.70
2016,06,26,16,22,23.60
2016,06,26,16,23,23.60
2016,06,26,16,24,23.60
2016,06,26,16,25,23.60
2016,06,26,16,26,23.60
2016,06,26,16,27,23.60
2016,06,26,16,28,23.60
2016,06,26,16,29,23.60
2016,06,26,16,30,23.70
2016,06,26,16,31,23.70
2016,06,26,16,32,23.70
2016,06,26,16,33,23.80
2016,06,26,16,34,23.80
2016,06,26,16,35,23.90
2016,06,26,16,36,23.80
2016,06,26,16,37,23.80
2016,06,26,16,38,23.70
2016,06,26,16,39,23.60
2016,06,26,16,40,23.60
2016,06,26,16,41,23.60
2016,06,26,16,42,23.60
2016,06,26,16,43,23.60
2016,06,26,16,44,23.70
2016,06,26,16,45,23.70
2016,06,26,16,46,23.70
2016,06,26,16,47,23.70
2016,06,26,16,48,23.70
2016,06,26,16,49,23.70
2016,06,26,16,50,23.80
2016,06,26,16,51,23.80
2016,06,26,16,52,23.80
2016,06,26,16,53,23.80
2016,06,26,16,54,23.80
2016,06,26,16,55,23.70
2016,06,26,16,56,23.70
2016,06,26,16,57,23.60
2016,06,26,16,58,23.60
2016,06,26,16,59,23.50
2016,06,26,17,00,23.50
2016,06,26,17,01,23.50
2016,06,26,17,02,23.40
2016,06,26,17,03,23.40
2016,06,26,17,04,23.40
2016,06,26,17,05,23.40
2016,06,26,17,06,23.40
2016,06,26,17,07,23.50
2016,06,26,17,08,23.50
2016,06,26,17,09,23.60
2016,06,26,17,10,23.70
2016,06,26,17,11,23.70
2016,06,26,17,12,23.70
2016,06,26,17,13,23.70
2016,06,26,17,14,23.70
2016,06,26,17,15,23.70
2016,06,26,17,16,23.70
2016,06,26,17,17,23.70
2016,06,26,17,18,23.80
2016,06,26,17,19,23.80